Time,TemperatureF,DewpointF,PressureIn,WindDirection,WindDirectionDegrees,WindSpeedMPH,WindSpeedGustMPH,Humidity,HourlyPrecipIn,Conditions,Clouds,dailyrainin,SoftwareType,DateUTC
2013-08-14 00:01:00,71.8,71.0,29.79,WSW,252,0.0,1.0,97,0.00,,,0.00,weatherlink.com 1.10,2013-08-14 04:01:00,
2013-08-14 00:16:00,71.8,71.0,29.79,WSW,252,0.0,0.0,97,0.00,,,0.00,weatherlink.com 1.10,2013-08-14 04:16:00,
2013-08-14 00:31:00,71.8,71.0,29.79,WSW,252,0.0,0.0,97,0.00,,,0.00,weatherlink.com 1.10,2013-08-14 04:31:00,
2013-08-14 00:46:00,71.7,71.0,29.79,WSW,252,0.0,1.0,97,0.00,,,0.00,weatherlink.com 1.10,2013-08-14 04:46:00,
2013-08-14 01:01:00,71.7,71.0,29.79,WNW,300,0.0,2.0,97,0.00,,,0.00,weatherlink.com 1.10,2013-08-14 05:01:00,
2013-08-14 01:16:00,71.7,71.0,29.79,WNW,300,0.0,0.0,97,0.00,,,0.00,weatherlink.com 1.10,2013-08-14 05:16:00,
2013-08-14 01:32:00,71.5,71.0,29.80,WNW,300,0.0,1.0,97,0.00,,,0.00,weatherlink.com 1.10,2013-08-14 05:32:00,
2013-08-14 01:47:00,71.4,71.0,29.79,WNW,300,0.0,0.0,97,0.00,,,0.00,weatherlink.com 1.10,2013-08-14 05:47:00,
2013-08-14 02:02:00,71.1,70.0,29.79,WNW,300,0.0,0.0,97,0.00,,,0.00,weatherlink.com 1.10,2013-08-14 06:02:00,
2013-08-14 02:17:00,70.7,70.0,29.80,WNW,300,0.0,0.0,97,0.00,,,0.00,weatherlink.com 1.10,2013-08-14 06:17:00,
2013-08-14 02:32:00,70.3,69.0,29.80,NNW,330,0.0,0.0,97,0.00,,,0.00,weatherlink.com 1.10,2013-08-14 06:32:00,
2013-08-14 02:47:00,69.9,69.0,29.80,NNW,333,0.0,0.0,97,0.00,,,0.00,weatherlink.com 1.10,2013-08-14 06:47:00,
2013-08-14 03:02:00,69.5,69.0,29.80,NNW,333,0.0,0.0,97,0.00,,,0.00,weatherlink.com 1.10,2013-08-14 07:02:00,
2013-08-14 03:17:00,69.1,68.0,29.80,NNW,340,0.0,3.0,96,0.00,,,0.00,weatherlink.com 1.10,2013-08-14 07:17:00,
2013-08-14 03:32:00,69.0,68.0,29.80,NNW,340,0.0,1.0,96,0.00,,,0.00,weatherlink.com 1.10,2013-08-14 07:32:00,
2013-08-14 03:47:00,68.8,68.0,29.80,NNW,340,0.0,1.0,96,0.00,,,0.00,weatherlink.com 1.10,2013-08-14 07:47:00,
2013-08-14 04:02:00,68.6,68.0,29.80,West,279,0.0,1.0,96,0.00,,,0.00,weatherlink.com 1.10,2013-08-14 08:02:00,
2013-08-14 04:17:00,68.5,67.0,29.81,North,360,0.0,2.0,96,0.00,,,0.00,weatherlink.com 1.10,2013-08-14 08:17:00,
2013-08-14 04:32:00,68.3,67.0,29.81,North,5,0.0,2.0,95,0.00,,,0.00,weatherlink.com 1.10,2013-08-14 08:32:00,
2013-08-14 04:47:00,68.2,67.0,29.81,North,355,0.0,3.0,94,0.00,,,0.00,weatherlink.com 1.10,2013-08-14 08:47:00,
2013-08-14 05:02:00,68.2,67.0,29.81,NNW,327,0.0,3.0,94,0.00,,,0.00,weatherlink.com 1.10,2013-08-14 09:02:00,
2013-08-14 05:17:00,68.2,67.0,29.81,NNW,344,0.0,3.0,94,0.00,,,0.00,weatherlink.com 1.10,2013-08-14 09:17:00,
2013-08-14 05:32:00,68.2,66.0,29.82,NNW,344,0.0,2.0,93,0.00,,,0.00,weatherlink.com 1.10,2013-08-14 09:32:00,
2013-08-14 05:47:00,68.2,66.0,29.82,North,11,0.0,4.0,93,0.00,,,0.00,weatherlink.com 1.10,2013-08-14 09:47:00,
2013-08-14 06:02:00,68.2,66.0,29.83,North,355,0.0,3.0,93,0.00,,,0.00,weatherlink.com 1.10,2013-08-14 10:02:00,
2013-08-14 06:17:00,68.1,66.0,29.84,North,355,0.0,3.0,93,0.00,,,0.00,weatherlink.com 1.10,2013-08-14 10:17:00,
2013-08-14 06:32:00,68.0,66.0,29.85,North,355,0.0,1.0,93,0.00,,,0.00,weatherlink.com 1.10,2013-08-14 10:32:00,
2013-08-14 06:47:00,68.0,66.0,29.86,North,360,0.0,2.0,93,0.00,,,0.00,weatherlink.com 1.10,2013-08-14 10:47:00,
2013-08-14 07:02:00,67.9,66.0,29.87,North,360,0.0,1.0,94,0.00,,,0.00,weatherlink.com 1.10,2013-08-14 11:02:00,
2013-08-14 07:17:00,67.9,66.0,29.88,NNW,348,0.0,4.0,94,0.00,,,0.00,weatherlink.com 1.10,2013-08-14 11:17:00,
2013-08-14 07:32:00,67.8,66.0,29.89,NNW,327,0.0,2.0,94,0.00,,,0.00,weatherlink.com 1.10,2013-08-14 11:32:00,
2013-08-14 07:47:00,67.9,66.0,29.89,NNW,344,0.0,3.0,94,0.00,,,0.00,weatherlink.com 1.10,2013-08-14 11:47:00,
2013-08-14 08:02:00,67.9,66.0,29.90,NNW,338,0.0,7.0,93,0.00,,,0.00,weatherlink.com 1.10,2013-08-14 12:02:00,
2013-08-14 08:17:00,67.9,66.0,29.91,North,355,0.0,3.0,93,0.00,,,0.00,weatherlink.com 1.10,2013-08-14 12:17:00,
2013-08-14 08:32:00,67.9,66.0,29.91,North,5,0.0,4.0,93,0.00,,,0.00,weatherlink.com 1.10,2013-08-14 12:32:00,
2013-08-14 08:47:00,68.2,66.0,29.91,NNW,348,0.0,5.0,93,0.00,,,0.00,weatherlink.com 1.10,2013-08-14 12:47:00,
2013-08-14 09:02:00,68.3,66.0,29.92,North,5,4.0,8.0,92,0.00,,,0.00,weatherlink.com 1.10,2013-08-14 13:02:00,
2013-08-14 09:17:00,68.6,66.0,29.93,NE,36,0.0,6.0,90,0.00,,,0.00,weatherlink.com 1.10,2013-08-14 13:17:00,
2013-08-14 09:32:00,69.0,66.0,29.93,West,279,3.0,10.0,90,0.00,,,0.00,weatherlink.com 1.10,2013-08-14 13:32:00,
2013-08-14 09:47:00,69.5,66.0,29.93,North,5,2.0,13.0,87,0.00,,,0.00,weatherlink.com 1.10,2013-08-14 13:47:00,
2013-08-14 10:02:00,70.1,66.0,29.93,North,360,1.0,8.0,86,0.00,,,0.00,weatherlink.com 1.10,2013-08-14 14:02:00,
2013-08-14 10:17:00,70.4,66.0,29.94,North,5,0.0,5.0,86,0.00,,,0.00,weatherlink.com 1.10,2013-08-14 14:17:00,
2013-08-14 10:33:00,70.7,66.0,29.94,North,360,0.0,6.0,86,0.00,,,0.00,weatherlink.com 1.10,2013-08-14 14:33:00,
2013-08-14 10:48:00,71.0,67.0,29.95,NNW,343,0.0,6.0,86,0.00,,,0.00,weatherlink.com 1.10,2013-08-14 14:48:00,
2013-08-14 11:18:00,70.9,66.0,29.96,NE,54,1.0,9.0,85,0.00,,,0.00,weatherlink.com 1.10,2013-08-14 15:18:00,
2013-08-14 11:33:00,70.8,66.0,29.96,NE,38,1.0,7.0,85,0.00,,,0.00,weatherlink.com 1.10,2013-08-14 15:33:00,
2013-08-14 11:48:00,70.7,66.0,29.96,NE,44,1.0,8.0,85,0.00,,,0.00,weatherlink.com 1.10,2013-08-14 15:48:00,
2013-08-14 12:03:00,70.7,66.0,29.96,East,90,2.0,8.0,85,0.00,,,0.00,weatherlink.com 1.10,2013-08-14 16:03:00,
2013-08-14 12:18:00,70.9,66.0,29.96,East,83,1.0,8.0,83,0.00,,,0.00,weatherlink.com 1.10,2013-08-14 16:18:00,
2013-08-14 12:33:00,70.9,66.0,29.96,East,92,5.0,6.0,83,0.00,,,0.00,weatherlink.com 1.10,2013-08-14 16:33:00,
2013-08-14 12:48:00,71.1,66.0,29.96,NNE,27,0.0,5.0,84,0.00,,,0.00,weatherlink.com 1.10,2013-08-14 16:48:00,
2013-08-14 13:18:00,71.3,67.0,29.96,NE,49,1.0,7.0,85,0.00,,,0.00,weatherlink.com 1.10,2013-08-14 17:18:00,
2013-08-14 13:48:00,71.6,66.0,29.96,ENE,77,2.0,6.0,82,0.00,,,0.00,weatherlink.com 1.10,2013-08-14 17:48:00,
2013-08-14 14:03:00,71.9,67.0,29.96,NE,45,0.0,5.0,83,0.00,,,0.00,weatherlink.com 1.10,2013-08-14 18:03:00,
2013-08-14 15:03:00,72.4,65.0,29.95,ESE,113,0.0,9.0,78,0.00,,,0.00,weatherlink.com 1.10,2013-08-14 19:03:00,
2013-08-14 15:18:00,72.1,65.0,29.95,North,5,5.0,6.0,79,0.00,,,0.00,weatherlink.com 1.10,2013-08-14 19:18:00,
2013-08-14 15:33:00,72.3,65.0,29.95,North,355,1.0,6.0,78,0.00,,,0.00,weatherlink.com 1.10,2013-08-14 19:33:00,
2013-08-14 15:48:00,72.1,64.0,29.95,NNE,30,2.0,8.0,75,0.00,,,0.00,weatherlink.com 1.10,2013-08-14 19:48:00,
2013-08-14 16:18:00,72.8,64.0,29.95,NNE,27,1.0,5.0,74,0.00,,,0.00,weatherlink.com 1.10,2013-08-14 20:18:00,
2013-08-14 16:48:00,72.8,65.0,29.95,North,5,1.0,3.0,76,0.00,,,0.00,weatherlink.com 1.10,2013-08-14 20:48:00,
2013-08-14 17:18:00,72.7,66.0,29.96,NNE,14,1.0,2.0,79,0.00,,,0.00,weatherlink.com 1.10,2013-08-14 21:18:00,
2013-08-14 17:33:00,72.4,64.0,29.96,East,81,2.0,5.0,76,0.00,,,0.00,weatherlink.com 1.10,2013-08-14 21:33:00,
2013-08-14 18:03:00,72.2,65.0,29.97,NE,52,2.0,5.0,77,0.00,,,0.00,weatherlink.com 1.10,2013-08-14 22:03:00,
2013-08-14 18:18:00,72.0,65.0,29.97,NE,52,1.0,3.0,78,0.00,,,0.00,weatherlink.com 1.10,2013-08-14 22:18:00,
2013-08-14 18:48:00,71.3,65.0,29.97,NE,37,0.0,5.0,80,0.00,,,0.00,weatherlink.com 1.10,2013-08-14 22:48:00,
2013-08-14 19:18:00,70.6,64.0,29.98,ENE,70,0.0,5.0,80,0.00,,,0.00,weatherlink.com 1.10,2013-08-14 23:18:00,
2013-08-14 19:33:00,70.2,64.0,29.98,ENE,73,2.0,3.0,80,0.00,,,0.00,weatherlink.com 1.10,2013-08-14 23:33:00,
2013-08-14 20:03:00,69.0,64.0,29.99,East,90,0.0,0.0,83,0.00,,,0.00,weatherlink.com 1.10,2013-08-15 00:03:00,
2013-08-14 20:18:00,68.2,64.0,30.00,East,90,0.0,0.0,85,0.00,,,0.00,weatherlink.com 1.10,2013-08-15 00:18:00,
2013-08-14 20:33:00,67.3,63.0,30.00,East,90,0.0,0.0,86,0.00,,,0.00,weatherlink.com 1.10,2013-08-15 00:33:00,
2013-08-14 20:48:00,66.5,63.0,30.00,East,91,0.0,0.0,88,0.00,,,0.00,weatherlink.com 1.10,2013-08-15 00:48:00,
2013-08-14 21:03:00,66.0,63.0,30.01,East,90,0.0,1.0,89,0.00,,,0.00,weatherlink.com 1.10,2013-08-15 01:03:00,
2013-08-14 21:18:00,65.4,63.0,30.03,East,99,0.0,1.0,90,0.00,,,0.00,weatherlink.com 1.10,2013-08-15 01:18:00,
2013-08-14 21:33:00,64.8,62.0,30.03,East,99,0.0,0.0,90,0.00,,,0.00,weatherlink.com 1.10,2013-08-15 01:33:00,
2013-08-14 21:48:00,64.3,62.0,30.03,East,99,0.0,0.0,91,0.00,,,0.00,weatherlink.com 1.10,2013-08-15 01:48:00,
2013-08-14 22:03:00,63.9,62.0,30.04,East,99,0.0,1.0,92,0.00,,,0.00,weatherlink.com 1.10,2013-08-15 02:03:00,
2013-08-14 22:18:00,63.5,61.0,30.04,East,99,0.0,0.0,92,0.00,,,0.00,weatherlink.com 1.10,2013-08-15 02:18:00,
2013-08-14 22:33:00,63.1,61.0,30.04,East,99,0.0,0.0,92,0.00,,,0.00,weatherlink.com 1.10,2013-08-15 02:33:00,
2013-08-14 22:49:00,62.6,60.0,30.04,East,99,0.0,0.0,92,0.00,,,0.00,weatherlink.com 1.10,2013-08-15 02:49:00,
2013-08-14 23:04:00,62.3,60.0,30.04,East,99,0.0,0.0,93,0.00,,,0.00,weatherlink.com 1.10,2013-08-15 03:04:00,
2013-08-14 23:19:00,61.9,60.0,30.05,East,86,0.0,2.0,93,0.00,,,0.00,weatherlink.com 1.10,2013-08-15 03:19:00,
2013-08-14 23:34:00,61.5,60.0,30.05,East,86,0.0,0.0,93,0.00,,,0.00,weatherlink.com 1.10,2013-08-15 03:34:00,
2013-08-14 23:49:00,61.0,59.0,30.05,East,86,0.0,0.0,93,0.00,,,0.00,weatherlink.com 1.10,2013-08-15 03:49:00,